Miscellaneous Local Product
Issued by NWS North Platte, NE

Home | Current Version | Previous Version | Text Only | Print | Product List | Glossary On
Versions: 1 2 3 4 5 6 7 8 9 10 11 12 13 14 15 16 17 18 19 20 21 22 23 24 25 26 27 28 29 30 31 32 33 34 35 36 37 38 39 40 41 42 43 44 45 46 47 48 49 50
000
AXUS43 KLBF 300710
MISLBF


WESTERN AND NORTH CENTRAL NEBRASKA HOURLY WEATHER ROUNDUP
NATIONAL WEATHER SERVICE NORTH PLATTE NE
200 AM CDT TUE JUN 30 2015

***STATIONS NOT REPORTING VARIABLES SUCH AS SKY/WEATHER OR
PRESSURE ARE PROVIDED BY THE NEBRASKA DEPARTMENT OF
ROADS...RAWS...AND APRS NETWORKS...AND ARE NOT UNDER
NATIONAL WEATHER SERVICE QUALITY CONTROL***

...OBSERVATIONS IN AND NEAR THE EASTERN PANHANDLE OF NEBRASKA...

CITY           SKY/WX    TMP DP  RH WIND       PRES   REMARKS
PINE RIDGE     CLEAR     62  57  83 CALM      30.04F
CHADRON        PTCLDY    62  59  90 W3        30.05F
ALLIANCE       CLEAR     58  56  93 W5        30.10F
SIDNEY         CLEAR     64  57  78 S5        30.14F
WHITECLAY        N/A     61  56  84 SE3         N/A
CRESCENT LAKE    N/A     68  56  66 CALM        N/A
$$

...OBSERVATIONS IN NORTH CENTRAL NEBRASKA...

CITY           SKY/WX    TMP DP  RH WIND       PRES   REMARKS
VALENTINE      CLEAR     65  61  87 SW5       30.00F
THEDFORD       CLEAR     64  60  88 CALM      30.05F
AINSWORTH      CLEAR     65  59  80 SW7       30.01F
O`NEILL        CLEAR     67  63  86 SW5       29.97F
ORD            CLEAR     61  58  90 CALM      29.99S
BROKEN BOW     CLEAR     63  59  87 N3        30.02F
VALENTINE NWR    N/A     66  64  92 SW3         N/A
SPRINGVIEW       N/A     61  58  90 CALM        N/A
HALSEY           N/A     69  59  69 SW3         N/A
BREWSTER         N/A     67  62  84 CALM        N/A
ROSE             N/A     81  73  76 SW6         N/A
NEWPORT          N/A     61  60  94 W3          N/A
SARGENT          N/A     64  62  93 CALM        N/A
CHAMBERS         N/A     68  60  75 S3          N/A
EWING            N/A     64  61  90 CALM        N/A
$$

...OBSERVATIONS IN SOUTHWEST NEBRASKA AND FAR NORTHEAST COLORADO...

CITY           SKY/WX    TMP DP  RH WIND       PRES   REMARKS
WRAY           FAIR      65  57  74 W7        30.10S
HOLYOKE        FAIR      64  59  82 SW3       30.11S
IMPERIAL       CLEAR     64  58  80 CALM      30.07F
OGALLALA       PTCLDY    61  58  88 W3        30.07F
NORTH PLATTE   CLEAR     65  61  87 NE5       30.05F
MCCOOK         CLEAR     73  58  59 SW6       30.04S
LEXINGTON      CLEAR     65  62  89 CALM      30.03F
PAXTON           N/A     65  59  81 CALM        N/A
GOTHENBURG       N/A     69  58  68 CALM        N/A
CALLAWAY         N/A     61  59  92 CALM        N/A
$$

...NORTH PLATTE AREA...

CITY           SKY/WX    TMP DP  RH WIND       PRES   REMARKS
AIRPORT        CLEAR     65  61  87 NE5       30.05F
DOWNTOWN         N/A     70  64  82 CALM        N/A
HILLCREST        N/A     70  61  72 E3          N/A
$$

...SOME WEATHER OBSERVATIONS FROM AROUND THE REGION...

CITY           SKY/WX    TMP DP  RH WIND       PRES   REMARKS
DENVER         PTCLDY    68  53  58 SW9       30.21F
LARAMIE        CLEAR     58  46  64 S10       30.34F
CHEYENNE       PTCLDY    60  47  61 W9        30.25F
SCOTTSBLUFF    CLEAR     65  56  72 E5        30.11F
RAPID CITY     PTCLDY    68  57  68 W7        30.01F
PIERRE         PTCLDY    69  61  75 CALM      29.90F
WINNER         FAIR      75  54  47 SW7       29.94F
SIOUX FALLS    MOCLDY    65  61  87 CALM      29.93R
OMAHA          CLOUDY    69  63  81 SE3       29.92S
GRAND ISLAND   CLEAR     68  60  75 CALM      30.00R
KANSAS CITY    CLEAR     72  66  81 SW5       29.93F
WICHITA        PTCLDY    72  60  66 CALM      29.99S
HAYS           CLEAR     66  50  55 NW3       30.02R
LIBERAL        CLEAR     70  59  68 S9          N/A
GOODLAND       CLEAR     66  55  67 SW9       30.10F
$$



USA.gov is the U.S. government's official web portal to all federal, state and local government web resources and services.